Weather History for EGPO - October, 2013

Change the Weather History Date:

Monday, October 14, 2013

  Actual Average Record
Temperature  
Mean Temperature 50 °F -  
Max Temperature 56 °F 50 °F 60 °F (2006)
Min Temperature 45 °F 41 °F 41 °F (2012)
Degree Days  
Heating Degree Days 14    
Moisture  
Dew Point 47 °F    
Average Humidity 82    
Maximum Humidity 88    
Minimum Humidity 60    
Precipitation  
Precipitation 0.00 in 0.18 in - ()
Sea Level Pressure  
Sea Level Pressure 30.08 in    
Wind  
Wind Speed 9 mph ()    
Max Wind Speed 20 mph    
Max Gust Speed -    
Visibility 7.3 miles    
Events      
Averages and records for this station are not official NWS values.
T = Trace of Precipitation, MM = Missing Value Source: Averaged Metar Reports

Daily Weather History Graph

Daily Weather History Graph

Search for Another Location

Airport or City:

Trip Planner

Search our weather history database for the weather conditions in past years. The results will help you decide how hot, cold, wet, or windy it might be!

Date:

Astronomy

Oct. 14, 2013 Rise Set
Actual Time 7:58 AM BST 6:22 PM BST
Civil Twilight 7:18 AM BST 7:02 PM BST
Nautical Twilight 6:33 AM BST 7:48 PM BST
Astronomical Twilight 5:46 AM BST 8:34 PM BST
Moon 4:34 PM BST (10/14) 2:00 AM BST (10/14)
Length of Visible Light 11h 43m
Length of Day
10h 23m
Waxing Gibbous, 77% of the Moon is Illuminated
Oct 14
Waxing Gibbous
Oct 19
Full
Oct 27
Last Quarter
Nov 3
New
Nov 10
First Quarter

Hourly Weather History & Observations

Time (BST) Temp. Windchill Dew Point Humidity Pressure Visibility Wind Dir Wind Speed Gust Speed Precip Events Conditions
12:20 AM 50.0 °F - 44.6 °F 82% 30.15 in 6.2 mi East 8.1 mph - N/A   Partly Cloudy
12:50 AM 48 °F - 44 °F 79% 30.13 in 18 mi ESE 12.7 mph - -  
12:50 AM 50.0 °F - 44.6 °F 82% 30.12 in 6.2 mi ESE 5.8 mph - N/A   Unknown
1:20 AM 50.0 °F - 44.6 °F 82% 30.12 in 6.2 mi ESE 9.2 mph - N/A   Unknown
1:50 AM 50.0 °F - 44.6 °F 82% 30.12 in 6.2 mi ESE 10.4 mph - N/A   Unknown
2:20 AM 50.0 °F - 44.6 °F 82% 30.12 in 6.2 mi East 10.4 mph - N/A   Unknown
2:50 AM 50.0 °F - 44.6 °F 82% 30.12 in 6.2 mi East 8.1 mph - N/A   Unknown
3:20 AM 50.0 °F - 44.6 °F 82% 30.12 in 6.2 mi East 8.1 mph - N/A   Unknown
3:50 AM 46 °F - 43 °F 84% 30.10 in 14 mi East 8.1 mph - -  
3:50 AM 48.2 °F - 44.6 °F 87% 30.09 in 6.2 mi ESE 9.2 mph - N/A   Unknown
4:20 AM 48.2 °F - 44.6 °F 87% 30.09 in 6.2 mi East 5.8 mph - N/A   Unknown
4:50 AM 46.4 °F 45.2 °F 42.8 °F 87% 30.09 in 4.3 mi Variable 3.5 mph - N/A   Unknown
5:20 AM 48.2 °F - 44.6 °F 87% 30.09 in 5.6 mi ESE 5.8 mph - N/A   Unknown
5:50 AM 48.2 °F - 42.8 °F 82% 30.09 in 5.0 mi ESE 5.8 mph - N/A   Unknown
6:20 AM 50.0 °F - 46.4 °F 87% 30.09 in 6.2 mi East 9.2 mph - N/A   Partly Cloudy
6:50 AM 47 °F - 44 °F 84% 30.10 in 11 mi SSE 2.3 mph - -  
6:50 AM 50.0 °F - 44.6 °F 82% 30.09 in 6.2 mi Variable 3.5 mph - N/A   Partly Cloudy
7:20 AM 50.0 °F - 44.6 °F 82% 30.09 in 6.2 mi East 2.3 mph - N/A   Partly Cloudy
7:50 AM 50.0 °F - 44.6 °F 82% 30.09 in 6.2 mi ENE 3.5 mph - N/A   Partly Cloudy
8:20 AM 50.0 °F - 44.6 °F 82% 30.12 in 6.2 mi East 2.3 mph - N/A   Partly Cloudy
8:50 AM 50.0 °F - 44.6 °F 82% 30.12 in 6.2 mi Variable 2.3 mph - N/A   Partly Cloudy
9:20 AM 50.0 °F - 44.6 °F 82% 30.12 in 6.2 mi East 5.8 mph - N/A   Partly Cloudy
9:50 AM 52 °F - 48 °F 81% 30.11 in 14 mi East 9.2 mph - -  
9:50 AM 50.0 °F - 44.6 °F 82% 30.09 in 6.2 mi East 9.2 mph - N/A   Partly Cloudy
10:20 AM 53.6 °F - 50.0 °F 88% 30.09 in 6.2 mi East 10.4 mph - N/A   Mostly Cloudy
10:50 AM 53.6 °F - 50.0 °F 88% 30.09 in 6.2 mi East 12.7 mph - N/A   Mostly Cloudy
11:20 AM 53.6 °F - 50.0 °F 88% 30.09 in 6.2 mi East 11.5 mph - N/A   Scattered Clouds
11:50 AM 53.6 °F - 50.0 °F 88% 30.09 in 6.2 mi East 9.2 mph - N/A   Partly Cloudy
12:20 PM 53.6 °F - 50.0 °F 88% 30.09 in 6.2 mi East 6.9 mph - N/A   Partly Cloudy
12:50 PM 57 °F - 47 °F 60% 30.09 in 19 mi East 11.5 mph - -  
12:50 PM 55.4 °F - 48.2 °F 77% 30.09 in 6.2 mi East 9.2 mph - N/A   Partly Cloudy
1:20 PM 55.4 °F - 48.2 °F 77% 30.09 in 6.2 mi ENE 9.2 mph - N/A   Partly Cloudy
1:50 PM 55.4 °F - 48.2 °F 77% 30.09 in 6.2 mi East 10.4 mph - N/A   Partly Cloudy
2:20 PM 55.4 °F - 48.2 °F 77% 30.06 in 6.2 mi ENE 9.2 mph - N/A   Partly Cloudy
2:50 PM 55.4 °F - 48.2 °F 77% 30.06 in 6.2 mi ENE 15.0 mph - N/A   Partly Cloudy
3:20 PM 55.4 °F - 48.2 °F 77% 30.06 in 6.2 mi NE 13.8 mph - N/A   Partly Cloudy
3:50 PM 54 °F - 48 °F 72% 30.06 in 16 mi NE 12.7 mph - -   Partly Cloudy
3:50 PM 55.4 °F - 48.2 °F 77% 30.06 in 6.2 mi NE 13.8 mph - N/A   Scattered Clouds
4:20 PM 55.4 °F - 48.2 °F 77% 30.06 in 6.2 mi ENE 16.1 mph - N/A   Mostly Cloudy
4:50 PM 55.4 °F - 48.2 °F 77% 30.06 in 6.2 mi ENE 16.1 mph - N/A   Mostly Cloudy
5:20 PM 53.6 °F - 48.2 °F 82% 30.06 in 6.2 mi ENE 16.1 mph - N/A   Mostly Cloudy
5:50 PM 53.6 °F - 48.2 °F 82% 30.06 in 6.2 mi ENE 16.1 mph - N/A   Mostly Cloudy
6:20 PM 51.8 °F - 48.2 °F 88% 30.04 in 6.2 mi ENE 16.1 mph - N/A   Mostly Cloudy
6:50 PM 52 °F - 48 °F 80% 30.05 in 13 mi ENE 15.0 mph - -   Scattered Clouds
6:50 PM 51.8 °F - 48.2 °F 88% 30.04 in 6.2 mi ENE 15.0 mph - N/A   Mostly Cloudy
7:20 PM 53.6 °F - 48.2 °F 82% 30.04 in 6.2 mi ENE 17.3 mph - N/A   Scattered Clouds
7:50 PM 51.8 °F - 48.2 °F 88% 30.04 in 6.2 mi ENE 17.3 mph - N/A   Partly Cloudy
8:20 PM 51.8 °F - 46.4 °F 82% 30.04 in 6.2 mi ENE 19.6 mph - N/A   Unknown
8:50 PM 51.8 °F - 48.2 °F 88% 30.04 in 6.2 mi ENE 18.4 mph - N/A   Unknown
9:20 PM 51.8 °F - 46.4 °F 82% 30.04 in 6.2 mi ENE 19.6 mph - N/A   Unknown
9:50 PM 52 °F - 46 °F 72% 30.03 in 47 mi NE 19.6 mph - -  
9:50 PM 51.8 °F - 46.4 °F 82% 30.04 in 6.2 mi NE 19.6 mph - N/A   Unknown
10:20 PM 51.8 °F - 46.4 °F 82% 30.04 in 6.2 mi ENE 16.1 mph - N/A   Unknown
10:50 PM 51.8 °F - 46.4 °F 82% 30.04 in 6.2 mi ENE 13.8 mph - N/A   Unknown
11:20 PM 51.8 °F - 46.4 °F 82% 30.04 in 6.2 mi ENE 15.0 mph - N/A   Unknown
11:50 PM 51.8 °F - 46.4 °F 82% 30.04 in 6.2 mi ENE 12.7 mph - N/A   Partly Cloudy